{"data":{"norad_id":69593,"epoch":"2026-09-20T02:39:17.701056Z","epoch_age_seconds":62541,"freshness":"FRESH","line1":"1 69593U 26140B   26263.11062154  .00023993  00000+0  64094-3 0  9995","line2":"2 69593  51.8790 299.9655 0004919 269.5999  90.4424 15.37956749 15837","mean_motion":15.37956749,"eccentricity":0.0004919,"inclination_deg":51.879,"raan_deg":299.9655,"arg_perigee_deg":269.5999,"mean_anomaly_deg":90.4424,"bstar":0.00064094,"rev_number":1583,"period_min":93.630721470959,"perigee_km":448.79239187099,"apogee_km":455.51203039691,"semimajor_km":6830.289211134,"source":"CELESTRAK","updated_at":"2026-09-20T09:00:24.998462Z"}}